This is the latest recevied weather packets stored in our database for station/object KI7MOQ. If no packets are shown the sender has not sent any weather packets the latest 10 day(s).
| Time | Temp. | Humidity | Pressure | Rain* | Wind** | Luminosity | Snow |
|---|---|---|---|---|---|---|---|
| 1777690375 | 17.22° C | 70% | 1017.2 hPa | 0 mm | - | 4 W/m² | - |
| 1777690072 | 17.22° C | 69% | 1017.3 hPa | 0 mm | - | 6 W/m² | - |
| 1777689770 | 17.22° C | 69% | 1017 hPa | 0 mm | - | 7 W/m² | - |
| 1777689468 | 17.78° C | 68% | 1017.1 hPa | 0 mm | - | 7 W/m² | - |
| 1777689165 | 17.78° C | 68% | 1017.1 hPa | 0 mm | - | 9 W/m² | - |
| 1777688863 | 17.78° C | 67% | 1016.8 hPa | 0 mm | - | 10 W/m² | - |
| 1777688559 | 18.33° C | 66% | 1017 hPa | 0 mm | - | 13 W/m² | - |
| 1777688256 | 18.89° C | 66% | 1016.7 hPa | 0 mm | - | 17 W/m² | - |
| 1777687954 | 18.89° C | 65% | 1016.9 hPa | 0 mm | - | 19 W/m² | - |
| 1777687650 | 18.89° C | 65% | 1016.7 hPa | 0 mm | - | 19 W/m² | - |
| 1777687348 | 19.44° C | 64% | 1016.9 hPa | 0 mm | - | 21 W/m² | - |
| 1777687046 | 19.44° C | 63% | 1016.6 hPa | 0 mm | - | 23 W/m² | - |
| 1777686741 | 20° C | 62% | 1016.6 hPa | 0 mm | - | 27 W/m² | - |
| 1777686440 | 20° C | 60% | 1016.5 hPa | 0 mm | - | 31 W/m² | - |
| 1777686136 | 20° C | 59% | 1016.5 hPa | 0 mm | - | 29 W/m² | - |
| 1777685833 | 20.56° C | 57% | 1016.5 hPa | 0 mm | - | 29 W/m² | - |
| 1777685528 | 20.56° C | 55% | 1016.6 hPa | 0 mm | - | 35 W/m² | - |
| 1777685225 | 21.11° C | 54% | 1016.6 hPa | 0 mm | - | 40 W/m² | - |
| 1777684923 | 21.11° C | 53% | 1016.4 hPa | 0 mm | - | 38 W/m² | - |
| 1777684619 | 21.11° C | 51% | 1016.4 hPa | 0 mm | - | 36 W/m² | - |
| 1777684316 | 21.11° C | 51% | 1016.4 hPa | 0 mm | - | 35 W/m² | - |
| 1777684013 | 21.67° C | 51% | 1016.5 hPa | 0 mm | - | 37 W/m² | - |
| 1777683709 | 21.67° C | 49% | 1016.5 hPa | 0 mm | - | 34 W/m² | - |
| 1777683407 | 21.67° C | 48% | 1016.4 hPa | 0 mm | - | 32 W/m² | - |
| 1777683105 | 21.67° C | 50% | 1016.5 hPa | 0 mm | - | 32 W/m² | - |
* Rain latest hour (hover to see other rain measurements)
** Current wind speed in m/s (hover to see current wind gust speed)